Flag for U.S.A. Weather past 2 weeks in Montgomery, Alabama, U.S.A.

Now
79 °F

Passing clouds.


Feels Like: 83 °F
Forecast: 74 / 92 °F
Wind: 6 mph from Southwest

Location: Dannelly Field

Current Time: Jul 3, 2015 at 7:57:13 AM

Latest Report: Jul 3, 2015 at 6:53 AM


Visibility: 10 mi

Pressure: 30.02 "Hg

Humidity: 84%

Dew point: 74 °F

Location of MontgomeryLocation

Historic Weather in Montgomery — Graph

°F

Montgomery temperature yesterday

Maximum temperature yesterday: 89 °F (at 1:53 PM)
Minimum temperature yesterday: 73 °F (at 1:53 AM)
Average temperature yesterday: 81 °F

Past Weeks' High & Low Weather Summary

 TemperatureHumidityPressure
High98 °F (Jun 23, 2:53 PM)94% (Jun 28, 6:53 AM)30.15 "Hg (Jun 28, 6:53 AM)
Low66 °F (Jun 29, 5:53 AM)36% (Jun 23, 4:53 PM)29.88 "Hg (Jun 27, 3:53 PM)
Average82 °F72%30.03 "Hg
* Reported Jun 18 6:53 AM — Jul 3 6:03 AM, Montgomery, Weather by CustomWeather, © 2015

Note: Actual official high and low records may vary slightly from our data, if they occured in-between our weather recording intervals... More about our weather records

Advertising

Montgomery weather history for previous 24 hours

 ConditionsComfort  
Time TempWeatherWind HumidityBarometerVisibility
6:03 AM
Fri, Jul 3
78 °FPassing clouds.5 mph84%30.02 "Hg10 mi
5:53 AM78 °FOvercast.5 mph84%30.01 "Hg10 mi
4:53 AM77 °FPassing clouds.3 mph88%29.99 "Hg10 mi
3:53 AM78 °FClear.6 mph84%29.98 "Hg10 mi
2:53 AM80 °FClear.8 mph79%29.98 "Hg10 mi
1:53 AM80 °FClear.6 mph81%29.98 "Hg10 mi
12:53 AM81 °FClear.7 mph79%30.00 "Hg10 mi
11:53 PM
Thu, Jul 2
81 °FClear.8 mph79%29.99 "Hg10 mi
10:53 PM81 °FClear.5 mph79%29.97 "Hg10 mi
9:53 PM82 °FClear.6 mph74%29.98 "Hg10 mi
8:53 PM83 °FSunny.5 mph72%29.97 "Hg10 mi
7:53 PM84 °FSunny.6 mph70%29.97 "Hg10 mi
6:53 PM86 °FPassing clouds.6 mph65%29.98 "Hg10 mi
5:53 PM88 °FPassing clouds.7 mph59%29.98 "Hg10 mi
4:53 PM89 °FPassing clouds.8 mph53%29.99 "Hg10 mi
3:53 PM89 °FPassing clouds.7 mph55%29.99 "Hg10 mi
2:53 PM88 °FPassing clouds.13 mph55%30.00 "Hg10 mi
1:53 PM89 °FScattered clouds.13 mph55%30.02 "Hg10 mi
12:53 PM88 °FSunny.13 mph55%30.02 "Hg10 mi
11:53 AM87 °FSunny.15 mph59%30.04 "Hg10 mi
10:53 AM83 °FBroken clouds.10 mph72%30.07 "Hg10 mi
9:53 AM81 °FPartly sunny.10 mph77%30.07 "Hg10 mi
9:00 AM80 °FPassing clouds.10 mph76%30.07 "Hg10 mi
7:53 AM76 °FScattered clouds.6 mph82%30.05 "Hg10 mi
Weather by CustomWeather, © 2015

See weather overviewHow to use our weather pages